DLH456 EDDF-KLAX

Flight info

Callsign DLH456
Flight time N/A
Altitude 36000
Route OBOKA3M OBOKA Z28 DIBIR DCT BUDIP DCT RAVLO Y70 OTBED DCT ABLUC DCT OZRAT DCT WETFI DCT DODIG DCT REVNU DCT PIKIL/M082F380 DCT 57N020W 57N030W 57N040W 56N050W DCT JANJO/N0476F380 DCT DENSO DCT AGLOL/N0488F400 DCT MERNU DCT XEXUL DCT BLUOX DCT RAP J158 DDY J107 NORRA J100 LAS Q70 HAILO DCT KOPLE BOGET2
Aircraft B748/H-SADE2E3GHIJ3J4J5M1P2RWXYZ/LB1D1

Departure

Time 2026-05-04 04:38
Airport Frankfurt Main Airport (EDDF)

Arrival

Time N/A
Airport Los Angeles International Airport (KLAX)
Time Latitude Longitude Altitude Speed Heading
2026-05-04 04:25 50.05186 8.59178 369 ft 0 kts 339°
2026-05-04 04:29 50.05171 8.59187 394 ft 4 kts 339°
2026-05-04 04:30 50.05146 8.59201 394 ft 4 kts 339°
2026-05-04 04:30 50.05120 8.59216 372 ft 4 kts 339°
2026-05-04 04:30 50.05100 8.59228 371 ft 4 kts 348°
2026-05-04 04:30 50.05075 8.59226 373 ft 4 kts 29°
2026-05-04 04:31 50.05056 8.59200 369 ft 4 kts 62°
2026-05-04 04:31 50.05046 8.59163 369 ft 5 kts 69°
2026-05-04 04:31 50.05042 8.59146 372 ft 2 kts 69°
2026-05-04 04:34 50.05042 8.59147 372 ft 0 kts 69°
2026-05-04 04:34 50.05046 8.59173 370 ft 4 kts 85°
2026-05-04 04:34 50.05048 8.59239 373 ft 4 kts 96°
2026-05-04 04:34 50.05039 8.59275 375 ft 4 kts 119°
2026-05-04 04:35 50.05016 8.59321 376 ft 8 kts 133°
2026-05-04 04:35 50.04952 8.59370 379 ft 12 kts 172°
2026-05-04 04:35 50.04870 8.59293 377 ft 17 kts 239°
2026-05-04 04:35 50.04817 8.59124 378 ft 17 kts 245°
2026-05-04 04:36 50.04771 8.58965 378 ft 15 kts 246°
2026-05-04 04:36 50.04732 8.58818 378 ft 11 kts 243°
2026-05-04 04:36 50.04703 8.58780 379 ft 6 kts 210°
2026-05-04 04:36 50.04665 8.58757 380 ft 6 kts 195°
2026-05-04 04:37 50.04443 8.58433 379 ft 41 kts 249°
2026-05-04 04:37 50.04239 8.57577 377 ft 126 kts 250°
2026-05-04 04:38 50.03833 8.55934 382 ft 196 kts 247°
2026-05-04 04:38 50.03290 8.53806 995 ft 218 kts 249°
2026-05-04 04:38 50.02828 8.51711 2377 ft 196 kts 250°
2026-05-04 04:38 50.02144 8.49861 2930 ft 201 kts 221°
2026-05-04 04:39 50.00914 8.48837 3504 ft 204 kts 195°
2026-05-04 04:39 49.99528 8.48337 4088 ft 205 kts 195°
2026-05-04 04:39 49.98129 8.47838 4636 ft 207 kts 195°
2026-05-04 04:39 49.96723 8.47324 5174 ft 208 kts 196°
2026-05-04 04:40 49.95330 8.46691 5657 ft 211 kts 201°
2026-05-04 04:40 49.93889 8.46031 5953 ft 222 kts 199°
2026-05-04 04:40 49.92390 8.45346 6189 ft 232 kts 204°
2026-05-04 04:40 49.91091 8.43865 6537 ft 237 kts 232°
2026-05-04 04:41 49.90184 8.41717 6993 ft 240 kts 239°
2026-05-04 04:41 49.89332 8.39473 7449 ft 242 kts 240°
2026-05-04 04:41 49.88670 8.37073 7900 ft 245 kts 260°
2026-05-04 04:41 49.88629 8.34406 8264 ft 252 kts 272°
2026-05-04 04:42 49.88780 8.31650 8496 ft 261 kts 273°
2026-05-04 04:42 49.88946 8.28814 8802 ft 266 kts 273°
2026-05-04 04:42 49.89182 8.26897 9014 ft 271 kts 288°
2026-05-04 04:42 49.90100 8.24347 9327 ft 278 kts 302°
2026-05-04 04:43 49.91257 8.21911 9676 ft 281 kts 303°
2026-05-04 04:43 49.92437 8.19487 10029 ft 283 kts 303°
2026-05-04 04:43 49.93610 8.17033 10560 ft 287 kts 303°
2026-05-04 04:43 49.95023 8.14712 10946 ft 306 kts 315°
2026-05-04 04:44 49.96684 8.12501 11253 ft 324 kts 316°
2026-05-04 04:44 49.98451 8.10203 11694 ft 337 kts 316°
2026-05-04 04:44 50.00257 8.07803 12334 ft 344 kts 316°
2026-05-04 04:44 50.02081 8.05341 13043 ft 350 kts 316°
2026-05-04 04:45 50.03940 8.02843 13779 ft 356 kts 316°
2026-05-04 04:45 50.05827 8.00320 14436 ft 360 kts 316°
2026-05-04 04:45 50.07738 7.97760 15098 ft 365 kts 315°
2026-05-04 04:47 50.19643 7.81715 19076 ft 387 kts 315°
2026-05-04 04:47 50.21665 7.78982 19682 ft 391 kts 314°
2026-05-04 04:47 50.23730 7.76182 20265 ft 394 kts 314°
2026-05-04 04:47 50.25951 7.73599 20841 ft 404 kts 327°
2026-05-04 04:48 50.28511 7.71698 21414 ft 410 kts 332°
2026-05-04 04:49 50.39186 7.64414 23559 ft 425 kts 332°
2026-05-04 04:49 50.41906 7.62542 23995 ft 428 kts 332°
2026-05-04 04:49 50.44651 7.60662 24401 ft 431 kts 332°
2026-05-04 04:49 50.47407 7.58766 24809 ft 434 kts 332°
2026-05-04 04:50 50.50174 7.56853 25215 ft 436 kts 332°
2026-05-04 04:50 50.52965 7.54924 25627 ft 439 kts 332°
2026-05-04 04:50 50.55715 7.52957 26026 ft 438 kts 326°
2026-05-04 04:50 50.58292 7.50434 26440 ft 437 kts 322°
2026-05-04 04:51 50.60847 7.47817 26827 ft 439 kts 322°
2026-05-04 04:51 50.63411 7.45182 27248 ft 441 kts 322°
2026-05-04 04:51 50.65992 7.42537 27667 ft 443 kts 321°
2026-05-04 04:51 50.68582 7.39883 28088 ft 445 kts 321°
2026-05-04 04:52 50.71179 7.37213 28493 ft 447 kts 321°
2026-05-04 04:52 50.73676 7.34332 28896 ft 442 kts 312°
2026-05-04 04:52 50.75776 7.30849 29296 ft 436 kts 302°
2026-05-04 04:52 50.77549 7.26977 29677 ft 435 kts 300°
2026-05-04 04:53 50.79295 7.23073 30044 ft 437 kts 300°
2026-05-04 04:53 50.81050 7.19127 30359 ft 439 kts 300°
2026-05-04 04:53 50.82814 7.15166 30653 ft 441 kts 300°
2026-05-04 04:53 50.84587 7.11186 30961 ft 443 kts 300°
2026-05-04 04:54 50.86365 7.07187 31243 ft 445 kts 300°
2026-05-04 04:54 50.88148 7.03162 31541 ft 447 kts 300°
2026-05-04 04:54 50.89939 6.99118 31805 ft 450 kts 300°
2026-05-04 04:54 50.91718 6.95097 32066 ft 452 kts 300°
2026-05-04 04:55 50.93515 6.91035 32337 ft 454 kts 300°
2026-05-04 04:55 50.95340 6.86902 32575 ft 456 kts 300°
2026-05-04 04:55 50.97160 6.82770 32817 ft 458 kts 300°
2026-05-04 04:55 50.98998 6.78590 33059 ft 460 kts 300°
2026-05-04 04:56 51.00828 6.74424 33297 ft 462 kts 300°
2026-05-04 04:56 51.02678 6.70205 33520 ft 464 kts 300°
2026-05-04 04:56 51.04501 6.66040 33770 ft 466 kts 300°
2026-05-04 04:56 51.06358 6.61794 34003 ft 468 kts 300°
2026-05-04 04:57 51.08216 6.57534 34192 ft 470 kts 300°
2026-05-04 04:57 51.10087 6.53239 34370 ft 472 kts 300°
2026-05-04 04:57 51.11962 6.48925 34576 ft 474 kts 300°
2026-05-04 04:57 51.13839 6.44600 34777 ft 476 kts 300°
2026-05-04 04:58 51.15716 6.40269 35047 ft 475 kts 300°
2026-05-04 04:58 51.17595 6.35925 35318 ft 476 kts 300°
2026-05-04 04:58 51.19473 6.31576 35571 ft 476 kts 300°
2026-05-04 04:58 51.21353 6.27215 35802 ft 477 kts 300°
2026-05-04 04:59 51.23225 6.22866 35956 ft 475 kts 300°
2026-05-04 04:59 51.25088 6.18531 35980 ft 473 kts 300°
2026-05-04 04:59 51.28742 6.09852 35963 ft 467 kts 298°
2026-05-04 05:00 51.32320 6.01192 35957 ft 466 kts 298°
2026-05-04 05:01 51.37628 5.88247 35961 ft 467 kts 303°
2026-05-04 05:01 51.42049 5.80490 35971 ft 473 kts 308°
2026-05-04 05:02 51.46588 5.72858 35971 ft 471 kts 308°
2026-05-04 05:02 51.51097 5.65218 35973 ft 471 kts 308°
2026-05-04 05:03 51.55581 5.57621 35953 ft 471 kts 308°
2026-05-04 05:04 51.64595 5.42257 35953 ft 472 kts 308°
2026-05-04 05:04 51.69090 5.34558 35980 ft 472 kts 308°
2026-05-04 05:06 51.87031 5.03599 35953 ft 472 kts 308°
2026-05-04 05:07 51.91473 4.95873 35950 ft 472 kts 307°
2026-05-04 05:07 51.95948 4.88066 35953 ft 471 kts 307°
2026-05-04 05:09 52.15986 4.52802 35948 ft 472 kts 307°
2026-05-04 05:10 52.20429 4.44913 35960 ft 472 kts 307°
2026-05-04 05:10 52.24866 4.37013 35946 ft 472 kts 307°
2026-05-04 05:11 52.29300 4.29090 35951 ft 472 kts 307°
2026-05-04 05:11 52.33727 4.21157 35953 ft 472 kts 307°
2026-05-04 05:12 52.38143 4.13216 35956 ft 472 kts 307°
2026-05-04 05:12 52.42528 4.05306 35956 ft 472 kts 307°
2026-05-04 05:13 52.46962 3.97279 35972 ft 472 kts 308°
2026-05-04 05:13 52.51366 3.89288 35963 ft 475 kts 308°
2026-05-04 05:14 52.55794 3.81220 35965 ft 475 kts 308°
2026-05-04 05:14 52.60220 3.73133 35957 ft 475 kts 308°
2026-05-04 05:15 52.64648 3.65015 35960 ft 475 kts 307°
2026-05-04 05:15 52.69035 3.56946 35955 ft 475 kts 307°
2026-05-04 05:16 52.73445 3.48807 35956 ft 479 kts 308°
2026-05-04 05:16 52.77886 3.40589 35951 ft 479 kts 308°
2026-05-04 05:17 52.82320 3.32349 35952 ft 479 kts 308°
2026-05-04 05:17 52.86748 3.24097 35953 ft 479 kts 308°
2026-05-04 05:18 52.90804 3.15429 35962 ft 474 kts 294°
2026-05-04 05:18 52.92967 3.05289 35962 ft 466 kts 279°
2026-05-04 05:19 52.94360 2.94749 35965 ft 469 kts 279°
2026-05-04 05:19 52.95740 2.84190 35966 ft 468 kts 279°
2026-05-04 05:20 52.97114 2.73629 35973 ft 468 kts 279°
2026-05-04 05:20 52.98477 2.63051 35972 ft 468 kts 279°
2026-05-04 05:21 52.99823 2.52543 35981 ft 468 kts 280°
2026-05-04 05:21 53.01172 2.41914 35978 ft 470 kts 279°
2026-05-04 05:22 53.02514 2.31271 35973 ft 470 kts 279°
2026-05-04 05:22 53.03846 2.20621 35978 ft 470 kts 279°
2026-05-04 05:23 53.05170 2.09960 35978 ft 470 kts 279°
2026-05-04 05:23 53.06474 1.99365 35979 ft 473 kts 279°
2026-05-04 05:24 53.07783 1.88651 35983 ft 473 kts 279°
2026-05-04 05:24 53.09083 1.77920 35985 ft 473 kts 279°
2026-05-04 05:25 53.10376 1.67170 35987 ft 473 kts 279°
2026-05-04 05:25 53.11655 1.56442 35986 ft 473 kts 279°
2026-05-04 05:26 53.12927 1.45683 35987 ft 475 kts 279°
2026-05-04 05:26 53.14186 1.34950 35987 ft 475 kts 279°
2026-05-04 05:28 53.18949 0.93519 35996 ft 475 kts 279°
2026-05-04 05:29 53.20167 0.82696 35994 ft 473 kts 279°
2026-05-04 05:29 53.21364 0.71971 35992 ft 473 kts 279°
2026-05-04 05:31 53.26102 0.28596 35995 ft 475 kts 279°
2026-05-04 05:32 53.27262 0.17731 35997 ft 474 kts 279°
2026-05-04 05:33 53.29026 0.01486 36017 ft 475 kts 281°
2026-05-04 05:33 53.30457 -0.09328 36001 ft 478 kts 282°
2026-05-04 05:34 53.31880 -0.20185 35998 ft 479 kts 282°
2026-05-04 05:34 53.33300 -0.31056 35998 ft 477 kts 282°
2026-05-04 05:35 53.34690 -0.41828 35998 ft 478 kts 282°
2026-05-04 05:35 53.36091 -0.52726 35998 ft 478 kts 281°
2026-05-04 05:36 53.37474 -0.63598 36004 ft 477 kts 281°
2026-05-04 05:36 53.38849 -0.74473 36014 ft 477 kts 281°
2026-05-04 05:37 53.40217 -0.85385 36014 ft 479 kts 281°
2026-05-04 05:37 53.41574 -0.96293 36011 ft 477 kts 281°
2026-05-04 05:38 53.43590 -1.12671 36018 ft 480 kts 281°
2026-05-04 05:38 53.44917 -1.23556 36024 ft 478 kts 281°
2026-05-04 05:39 53.46899 -1.39975 36024 ft 479 kts 281°
2026-05-04 05:40 53.48859 -1.56435 36027 ft 478 kts 282°
2026-05-04 05:40 53.50158 -1.67435 36030 ft 481 kts 281°
2026-05-04 05:41 53.51452 -1.78500 36027 ft 481 kts 281°
2026-05-04 05:41 53.52724 -1.89469 36028 ft 481 kts 281°
2026-05-04 05:42 53.53998 -2.00542 36028 ft 482 kts 281°
2026-05-04 05:42 53.55260 -2.11626 36027 ft 485 kts 281°
2026-05-04 05:43 53.56523 -2.22792 36032 ft 486 kts 281°
2026-05-04 05:45 53.61461 -2.67487 36023 ft 489 kts 281°
2026-05-04 05:47 53.66276 -3.12702 36026 ft 490 kts 281°
2026-05-04 05:47 53.67459 -3.24073 36024 ft 493 kts 281°
2026-05-04 05:48 53.68632 -3.35471 36029 ft 493 kts 281°
2026-05-04 05:48 53.69789 -3.46810 36021 ft 493 kts 282°
2026-05-04 05:49 53.70943 -3.58238 36030 ft 494 kts 281°
2026-05-04 05:49 53.72086 -3.69673 36030 ft 496 kts 282°
2026-05-04 05:51 53.76562 -4.15603 36033 ft 496 kts 281°
2026-05-04 05:52 53.77659 -4.27147 36029 ft 498 kts 282°
2026-05-04 05:52 53.78747 -4.38744 36034 ft 498 kts 282°
2026-05-04 05:54 53.81078 -4.85583 36040 ft 503 kts 276°
2026-05-04 05:55 53.81444 -4.97419 36041 ft 503 kts 276°
2026-05-04 05:55 53.81814 -5.09251 36046 ft 503 kts 276°
2026-05-04 05:56 53.82162 -5.21083 36043 ft 503 kts 276°
2026-05-04 05:56 53.82504 -5.32849 36043 ft 505 kts 276°
2026-05-04 05:57 53.82833 -5.44741 36044 ft 505 kts 276°
2026-05-04 05:57 53.83845 -5.56408 36050 ft 499 kts 287°
2026-05-04 05:58 53.85442 -5.67839 36053 ft 499 kts 287°
2026-05-04 05:58 53.86992 -5.79300 36054 ft 498 kts 287°
2026-05-04 05:59 53.88545 -5.90732 36058 ft 498 kts 287°
2026-05-04 05:59 53.90071 -6.02117 36060 ft 498 kts 286°
2026-05-04 06:00 53.91599 -6.13579 36061 ft 498 kts 286°
2026-05-04 06:00 53.93116 -6.25056 36058 ft 498 kts 286°
2026-05-04 06:01 53.94624 -6.36554 36056 ft 499 kts 286°
2026-05-04 06:03 54.01354 -6.82127 36078 ft 498 kts 288°
2026-05-04 06:05 54.09017 -7.33105 36071 ft 490 kts 288°
2026-05-04 06:06 54.10668 -7.44310 36081 ft 490 kts 288°
2026-05-04 06:06 54.12324 -7.55611 36081 ft 490 kts 288°
2026-05-04 06:07 54.13968 -7.66926 36080 ft 490 kts 288°
2026-05-04 06:07 54.15592 -7.78176 36080 ft 491 kts 288°
2026-05-04 06:08 54.17213 -7.89488 36082 ft 491 kts 288°
2026-05-04 06:08 54.18825 -8.00817 36082 ft 490 kts 287°
2026-05-04 06:09 54.20423 -8.12137 36077 ft 490 kts 287°
2026-05-04 06:11 54.26692 -8.57375 36087 ft 489 kts 287°
2026-05-04 06:13 54.32794 -9.02764 36097 ft 489 kts 286°
2026-05-04 06:14 54.37987 -9.42546 36101 ft 489 kts 286°
2026-05-04 06:15 54.39200 -9.52009 36104 ft 487 kts 286°
2026-05-04 06:15 54.40641 -9.63320 36100 ft 485 kts 286°
2026-05-04 06:16 54.42070 -9.74626 36111 ft 484 kts 285°
2026-05-04 06:16 54.43488 -9.85942 36111 ft 484 kts 285°
2026-05-04 06:17 54.44894 -9.97257 36112 ft 484 kts 285°
2026-05-04 06:17 54.46313 -10.08478 36116 ft 482 kts 290°
2026-05-04 06:18 54.47495 -10.13819 36130 ft 476 kts 301°
2026-05-04 06:18 54.49116 -10.18769 36125 ft 473 kts 304°
2026-05-04 06:20 54.62492 -10.57714 36134 ft 471 kts 303°
2026-05-04 06:21 54.70765 -10.82140 36138 ft 471 kts 303°
2026-05-04 06:22 54.74064 -10.91948 36122 ft 471 kts 303°
2026-05-04 06:25 54.96794 -11.60629 36119 ft 469 kts 302°
2026-05-04 06:26 55.00001 -11.70481 36121 ft 465 kts 302°
2026-05-04 06:26 55.03186 -11.80300 36122 ft 465 kts 302°
2026-05-04 06:27 55.11093 -12.04856 36114 ft 465 kts 301°
2026-05-04 06:28 55.14233 -12.14679 36119 ft 465 kts 301°
2026-05-04 06:28 55.17380 -12.24563 36121 ft 464 kts 301°
2026-05-04 06:29 55.20510 -12.34436 36116 ft 462 kts 301°
2026-05-04 06:29 55.23600 -12.44220 36118 ft 462 kts 301°
2026-05-04 06:30 55.26704 -12.54092 36124 ft 462 kts 301°
2026-05-04 06:30 55.29805 -12.63992 36123 ft 462 kts 300°
2026-05-04 06:31 55.32898 -12.73909 36118 ft 463 kts 300°
2026-05-04 06:31 55.35983 -12.83840 36112 ft 462 kts 300°
2026-05-04 06:33 55.48218 -13.23650 36119 ft 463 kts 300°
2026-05-04 06:34 55.51241 -13.33588 36123 ft 463 kts 300°
2026-05-04 06:34 55.54276 -13.43608 36122 ft 463 kts 300°
2026-05-04 06:36 55.66269 -13.83628 36115 ft 459 kts 299°
2026-05-04 06:37 55.69243 -13.93657 36113 ft 459 kts 298°
2026-05-04 06:37 55.72187 -14.03627 36114 ft 459 kts 298°
2026-05-04 06:38 55.75144 -14.13684 36114 ft 459 kts 298°
2026-05-04 06:40 55.86848 -14.53927 36121 ft 458 kts 297°
2026-05-04 06:40 55.89758 -14.64041 36122 ft 458 kts 297°
2026-05-04 06:41 55.92658 -14.74165 36124 ft 458 kts 297°
2026-05-04 06:41 55.95547 -14.84292 36135 ft 458 kts 297°
2026-05-04 06:42 55.98408 -14.94367 36128 ft 458 kts 297°
2026-05-04 06:44 56.04885 -15.38324 36137 ft 458 kts 283°
2026-05-04 06:44 56.06280 -15.49470 36140 ft 458 kts 283°
2026-05-04 06:45 56.07665 -15.60610 36135 ft 459 kts 282°
2026-05-04 06:45 56.09037 -15.71757 36139 ft 459 kts 282°
2026-05-04 06:46 56.10395 -15.82853 36136 ft 458 kts 282°
2026-05-04 06:46 56.11741 -15.93966 36137 ft 455 kts 282°
2026-05-04 06:48 56.17009 -16.38300 36132 ft 455 kts 281°
2026-05-04 06:50 56.22127 -16.82838 36134 ft 455 kts 281°
2026-05-04 06:51 56.23383 -16.94004 36149 ft 455 kts 281°
2026-05-04 06:51 56.24626 -17.05148 36149 ft 454 kts 280°
2026-05-04 06:52 56.25858 -17.16295 36150 ft 454 kts 280°
2026-05-04 06:52 56.27073 -17.27384 36148 ft 454 kts 280°
2026-05-04 06:53 56.28286 -17.38555 36149 ft 455 kts 280°
2026-05-04 06:53 56.29490 -17.49747 36145 ft 457 kts 280°
2026-05-04 06:54 56.30690 -17.60996 36144 ft 457 kts 280°
2026-05-04 06:54 56.31871 -17.72170 36144 ft 457 kts 280°
2026-05-04 06:55 56.33050 -17.83433 36143 ft 457 kts 280°
2026-05-04 06:55 56.34219 -17.94695 36144 ft 457 kts 280°
2026-05-04 06:57 56.38783 -18.39738 36158 ft 457 kts 279°
2026-05-04 06:58 56.39900 -18.51029 36164 ft 457 kts 279°
2026-05-04 06:58 56.41006 -18.62320 36163 ft 457 kts 279°
2026-05-04 06:59 56.42102 -18.73630 36160 ft 457 kts 279°
2026-05-04 06:59 56.43192 -18.84978 36157 ft 459 kts 279°
2026-05-04 07:01 56.47446 -19.30428 36167 ft 458 kts 279°
2026-05-04 07:02 56.48478 -19.41745 36158 ft 458 kts 279°
2026-05-04 07:02 56.49508 -19.53161 36157 ft 459 kts 279°
2026-05-04 07:03 56.50528 -19.64597 36163 ft 460 kts 279°
2026-05-04 07:03 56.51539 -19.76036 36163 ft 460 kts 279°
2026-05-04 07:04 56.52531 -19.87404 36172 ft 460 kts 278°
2026-05-04 07:04 56.53361 -19.96996 36166 ft 460 kts 278°
2026-05-04 07:05 56.54335 -20.08381 36167 ft 460 kts 278°
2026-05-04 07:05 56.55307 -20.19876 36183 ft 459 kts 278°
2026-05-04 07:06 56.56740 -20.37053 36188 ft 459 kts 278°
2026-05-04 07:07 56.57682 -20.48518 36187 ft 459 kts 278°
2026-05-04 07:09 56.61344 -20.94417 36191 ft 461 kts 277°
2026-05-04 07:09 56.62239 -21.05966 36190 ft 461 kts 277°
2026-05-04 07:10 56.63120 -21.17493 36198 ft 460 kts 277°
2026-05-04 07:12 56.66534 -21.63605 36189 ft 459 kts 277°
2026-05-04 07:12 56.67359 -21.75124 36191 ft 459 kts 277°
2026-05-04 07:13 56.68168 -21.86561 36198 ft 458 kts 277°
2026-05-04 07:13 56.68973 -21.98115 36202 ft 460 kts 277°
2026-05-04 07:14 56.70938 -22.26970 36196 ft 460 kts 277°
2026-05-04 07:15 56.71707 -22.38556 36200 ft 460 kts 277°
2026-05-04 07:15 56.72458 -22.50029 36203 ft 459 kts 276°
2026-05-04 07:16 56.73203 -22.61575 36203 ft 460 kts 276°
2026-05-04 07:16 56.73937 -22.73129 36198 ft 458 kts 277°
2026-05-04 07:17 56.74660 -22.84667 36212 ft 459 kts 276°
2026-05-04 07:17 56.75373 -22.96235 36212 ft 459 kts 276°
2026-05-04 07:18 56.76075 -23.07787 36213 ft 458 kts 276°
2026-05-04 07:18 56.76766 -23.19354 36210 ft 460 kts 276°
2026-05-04 07:19 56.77449 -23.30962 36223 ft 460 kts 276°
2026-05-04 07:19 56.78118 -23.42528 36220 ft 459 kts 276°
2026-05-04 07:20 56.78778 -23.54115 36226 ft 460 kts 276°
2026-05-04 07:20 56.79422 -23.65631 36236 ft 458 kts 276°
2026-05-04 07:22 56.81911 -24.12043 36229 ft 461 kts 276°
2026-05-04 07:23 56.82504 -24.23609 36227 ft 459 kts 276°
2026-05-04 07:23 56.83088 -24.35215 36228 ft 459 kts 276°
2026-05-04 07:24 56.83662 -24.46838 36231 ft 459 kts 275°
2026-05-04 07:24 56.84224 -24.58452 36230 ft 459 kts 275°
2026-05-04 07:26 56.86371 -25.05037 36246 ft 460 kts 275°
2026-05-04 07:27 56.86877 -25.16607 36247 ft 460 kts 275°
2026-05-04 07:27 56.87376 -25.28282 36249 ft 461 kts 275°
2026-05-04 07:28 56.87864 -25.39957 36250 ft 459 kts 275°
2026-05-04 07:28 56.88342 -25.51627 36242 ft 460 kts 274°
2026-05-04 07:29 56.88808 -25.63301 36242 ft 460 kts 274°
2026-05-04 07:29 56.89265 -25.75014 36248 ft 461 kts 274°
2026-05-04 07:30 56.89707 -25.86635 36254 ft 461 kts 274°
2026-05-04 07:30 56.90140 -25.98290 36255 ft 458 kts 274°
2026-05-04 07:31 56.90562 -26.09953 36241 ft 460 kts 274°
2026-05-04 07:33 56.92145 -26.56730 36253 ft 460 kts 274°
2026-05-04 07:33 56.92511 -26.68368 36255 ft 461 kts 273°
2026-05-04 07:34 56.92870 -26.80096 36247 ft 460 kts 273°
2026-05-04 07:34 56.93217 -26.91856 36246 ft 462 kts 273°
2026-05-04 07:35 56.93554 -27.03611 36261 ft 461 kts 273°
2026-05-04 07:35 56.93880 -27.15342 36260 ft 462 kts 273°
2026-05-04 07:36 56.94193 -27.27039 36259 ft 462 kts 272°
2026-05-04 07:38 56.95344 -27.74180 36259 ft 466 kts 272°
2026-05-04 07:38 56.95605 -27.86018 36261 ft 463 kts 272°
2026-05-04 07:39 56.95853 -27.97753 36265 ft 464 kts 272°
2026-05-04 07:39 56.96092 -28.09559 36266 ft 463 kts 271°
2026-05-04 07:40 56.96318 -28.21362 36275 ft 465 kts 271°
2026-05-04 07:40 56.96537 -28.33270 36280 ft 466 kts 271°
2026-05-04 07:41 56.96742 -28.45145 36275 ft 465 kts 271°
2026-05-04 07:41 56.96937 -28.57040 36280 ft 467 kts 271°
2026-05-04 07:42 56.97120 -28.68899 36279 ft 465 kts 271°
2026-05-04 07:42 56.97291 -28.80683 36281 ft 465 kts 271°
2026-05-04 07:43 56.97451 -28.92528 36280 ft 465 kts 271°
2026-05-04 07:43 56.97601 -29.04433 36287 ft 468 kts 270°
2026-05-04 07:44 56.97741 -29.16342 36279 ft 465 kts 270°
2026-05-04 07:44 56.97867 -29.28254 36285 ft 469 kts 270°
2026-05-04 07:45 56.97966 -29.38176 36289 ft 467 kts 270°